Wind_Speed
103 102 101 98 97 96 94 90 88 88 88 89 89 89 87 85 87 91 93 94 94 94 92 93 93 93 92
110 109 107 107 107 106 103 101 99 98 97 96 97 96 93 91 91 89 90 90 92 96 98 100 100 100 99
116 115 115 115 114 111 111 111 109 107 107 106 104 103 102 100 99 97 96 95 93 92 91 92 93 95 98
119 119 120 119 118 119 120 118 117 116 115 113 113 112 110 109 108 107 106 105 104 103 101 99 97 95 93
124 124 123 123 122 123 124 124 125 125 124 123 123 121 121 119 118 116 116 115 114 113 112 111 109 105 104
123 124 126 126 127 127 129 130 130 129 130 131 129 129 129 129 129 127 124 122 123 123 121 119 117 116 115
120 123 123 123 123 123 125 126 129 130 126 130 133 134 135 135 135 134 134 134 132 130 129 127 125 122 122
119 121 122 124 124 125 124 124 124 125 126 126 130 129 130 130 131 133 135 137 137 140 139 137 136 133 132
117 118 118 119 119 119 118 119 120 121 124 122 126 126 127 128 130 130 131 132 134 137 138 139 142 143 141
114 114 116 117 118 118 118 119 119 119 124 122 122 125 124 125 126 126 127 129 131 133 134 136 138 139 139
118 119 119 121 122 122 121 120 119 118 122 120 119 121 120 119 124 126 127 127 128 129 131 132 133 134 134
126 127 126 128 128 128 128 127 127 127 130 129 125 126 124 121 121 126 127 126 126 127 126 126 127 129 130
119 120 124 125 127 129 131 133 133 134 135 135 133 131 130 129 128 129 130 132 132 128 128 126 125 124 123
106 108 108 110 111 112 113 115 116 120 122 124 125 125 127 128 129 131 134 134 137 136 135 133 130 128 126
95 96 97 98 101 102 102 105 105 107 110 110 110 110 110 111 113 115 117 118 122 126 127 130 132 133 132
84 87 89 90 91 92 94 96 96 98 100 103 102 101 102 104 107 109 110 112 115 115 116 116 121 128 130
81 82 83 83 84 86 88 89 90 93 96 99 101 100 98 100 105 105 107 110 107 106 106 107 109 118 118
Wind_Direction
255 255 255 255 255 255 255 255 253 252 253 253 252 253 254 254 254 254 254 255 254 254 255 256 256 256 256
256 256 256 256 255 255 253 252 252 252 252 252 252 251 253 254 254 254 254 254 254 255 256 256 257 258 257
255 255 256 255 255 255 255 254 254 252 251 251 251 252 252 253 254 254 254 254 254 254 254 254 255 255 256
256 255 255 256 255 254 254 254 253 253 253 252 252 252 252 253 253 254 254 254 254 255 255 254 254 254 255
258 258 257 256 256 255 255 255 254 253 253 253 252 252 252 252 254 254 254 253 253 254 255 256 257 256 255
258 259 259 259 258 258 255 255 255 255 254 254 253 253 253 253 253 253 253 253 254 254 253 253 255 256 257
259 258 259 258 258 257 257 257 258 258 257 256 255 255 255 255 255 255 254 254 253 253 253 252 253 254 255
259 259 258 258 258 258 258 258 258 258 258 258 258 257 257 257 257 256 255 254 254 254 253 253 253 254 254
259 259 259 259 259 259 259 258 258 257 258 258 259 259 259 258 258 258 257 256 256 256 255 254 255 254 254
259 259 259 260 260 259 259 258 258 258 258 257 257 257 258 259 259 259 258 258 257 257 256 256 256 255 255
259 258 258 259 259 260 260 260 260 259 259 259 259 258 258 258 260 259 259 258 257 258 258 257 257 257 257
260 259 259 258 259 259 260 259 259 259 259 258 258 259 259 258 257 259 260 259 259 258 258 258 258 258 257
261 261 260 260 260 260 260 260 259 259 258 259 258 258 259 259 258 258 259 260 260 260 259 259 259 259 258
262 261 261 261 260 260 259 259 260 260 259 259 259 259 258 258 258 258 259 258 259 259 259 259 259 259 259
261 261 260 260 260 260 260 259 259 259 259 258 258 258 258 258 258 258 259 259 259 258 258 258 258 257 257
262 262 261 261 260 260 260 259 259 259 259 260 259 258 258 259 259 260 260 259 260 259 259 258 258 257 257
262 262 261 261 260 260 260 260 260 260 260 260 260 260 259 259 260 260 260 261 260 260 260 259 258 258 258
Height
10497 10499 10502 10507 10511 10515 10519 10523 10526 10530 10533 10536 10540 10544 10548 10554 10558 10562 10566 10571 10576 10581 10585 10588 10592 10597 10603
10469 10472 10475 10479 10483 10487 10492 10496 10499 10503 10507 10511 10515 10520 10526 10531 10535 10539 10543 10546 10552 10557 10562 10568 10568 10572 10577
10438 10442 10445 10449 10453 10457 10463 10466 10469 10474 10479 10483 10488 10494 10500 10505 10511 10517 10519 10523 10527 10531 10536 10541 10544 10548 10551
10405 10409 10413 10418 10422 10426 10428 10433 10437 10443 10449 10454 10461 10466 10471 10476 10483 10486 10493 10497 10500 10504 10509 10513 10518 10523 10527
10371 10375 10378 10385 10389 10392 10395 10402 10404 10409 10414 10420 10429 10435 10438 10443 10449 10455 10461 10465 10470 10474 10479 10484 10490 10497 10502
10336 10340 10341 10347 10354 10359 10361 10361 10369 10376 10381 10385 10393 10396 10402 10408 10414 10421 10427 10432 10436 10441 10446 10453 10459 10465 10469
10303 10304 10308 10311 10317 10319 10324 10330 10333 10332 10347 10350 10350 10359 10362 10371 10378 10385 10390 10395 10398 10404 10411 10418 10426 10433 10439
10270 10269 10273 10273 10279 10282 10288 10295 10300 10301 10305 10314 10309 10320 10325 10332 10337 10342 10348 10355 10361 10366 10373 10381 10387 10398 10402
10234 10235 10237 10238 10242 10249 10253 10258 10264 10266 10265 10279 10276 10283 10289 10292 10295 10302 10309 10315 10320 10327 10334 10339 10348 10357 10365
10200 10203 10203 10205 10207 10211 10215 10220 10225 10232 10225 10242 10248 10245 10253 10255 10257 10263 10270 10275 10281 10286 10291 10296 10302 10311 10321
10164 10168 10170 10170 10170 10174 10180 10185 10190 10198 10188 10200 10208 10208 10219 10226 10220 10222 10229 10234 10240 10245 10249 10255 10262 10270 10281
10126 10127 10132 10132 10134 10138 10141 10147 10154 10158 10154 10159 10172 10171 10179 10190 10195 10184 10186 10193 10198 10203 10210 10217 10224 10230 10238
10081 10086 10087 10089 10096 10099 10102 10107 10114 10116 10116 10117 10128 10134 10141 10149 10154 10153 10154 10151 10154 10166 10171 10179 10185 10189 10198
10047 10048 10052 10055 10057 10060 10064 10067 10072 10070 10074 10077 10085 10094 10101 10106 10113 10114 10110 10119 10116 10122 10129 10139 10145 10150 10156
10015 10018 10020 10022 10021 10024 10029 10030 10035 10036 10035 10040 10049 10057 10063 10067 10071 10072 10073 10079 10077 10080 10091 10098 10101 10105 10112
9989 9988 9988 9990 9993 9994 9996 9998 10003 10004 10006 10004 10013 10024 10031 10034 10036 10036 10040 10040 10038 10045 10051 10062 10062 10058 10068
9962 9961 9961 9963 9966 9967 9967 9971 9974 9975 9975 9976 9979 9986 9998 10006 10002 10005 10005 10001 10010 10013 10018 10023 10028 10016 10029